カタログに戻る

CZ-4 DEB

運用中SSO
NORAD 26442·DEBRIS·🇨🇳 China

打ち上げ Oct 14, 1999 から Taiyuan Satellite Launch Center

Loading…

次のパス (今後24時間)

TLE

最新Source: Space-Track

元期: Sep 14, 2026, 18:55 UTC

1 26442U 99057KP  26257.78850267  .00001134  00000-0  23426-3 0  9992
2 26442  98.5404 278.2779 0053559 294.6144 124.0185 14.61597583394094

AllMySatでCZ-4 DEBをリアルタイム追跡

Download on the App Store